Regional & State Weather Roundups


399 
ASUS41 KLWX 210510
RWRLWX
REGIONAL WEATHER ROUNDUP
NATIONAL WEATHER SERVICE BALTIMORE MD/WASHINGTON DC
1200 AM EST SUN DEC 21 2014
Note: "FAIR" indicates few or no clouds below 12,000 feet
with no significant weather and/or obstructions to visibility.
 TC=TEMPERATURE CELSIUS
 * =Non NWS site. Station does not report precipitation (e.g. rain,
    snow, etc.), thunder, or fog.
DCZ001-MDZ009-015-VAZ040>042-051-053>054-210600-
WASHINGTON METRO
  
CITY           SKY/WX    TMP DP  RH WIND       PRES   REMARKS
WASHINGTON NAT MOCLDY    36  20  52 NW5       30.31S                  
DULLES         CLOUDY    31  25  78 CALM      30.30S                  
ANDREWS AFB    CLEAR     29  22  76 CALM      30.29S                  
FT BELVOIR     CLOUDY    29  24  81 CALM      30.31S                  
QUANTICO       CLOUDY    32  25  75 NW5       30.32S                  
COLLEGE PARK*  PTCLDY    30  27  86 CALM      30.30S                  
LEESBURG*      CLOUDY    32  30  93 CALM      30.30S                  
MANASSAS*      CLOUDY    32  28  86 CALM      30.31R                  
GAITHERSBURG*  CLOUDY    28  21  74 CALM      30.32S                  
$$
MDZ006>007-011-014-210600-
BALTIMORE METRO
  
CITY           SKY/WX    TMP DP  RH WIND       PRES   REMARKS
BWI AIRPORT    MOCLDY    31  24  75 CALM      30.29F                  
MD SCIENCE CTR   N/A     35  22  58 MISG      30.29F                  
MARTIN STATE   PTCLDY    32  28  86 CALM      30.31F                  
ANNAPOLIS      PTCLDY    33  27  78 CALM      30.30F                  
FORT MEADE*    MOCLDY    30  27  86 CALM      30.32S                  
$$
MDZ012-015-019>023-210600-
MARYLAND EASTERN SHORE
  
CITY           SKY/WX    TMP DP  RH WIND       PRES   REMARKS
OCEAN CITY     PTCLDY    24  23  96 NW5       30.30S                  
SALISBURY      CLEAR     28  23  81 CALM      30.30S                  
BAY BRIDGE AP*   N/A     34  27  75 CALM      30.31S                  
CAMBRIDGE*     PTCLDY    32  28  86 CALM      30.30S                  
EASTON*        PTCLDY    32  28  86 CALM      30.33F                  
$$
MDZ017>025-210600-
SOUTHERN MARYLAND
  
CITY           SKY/WX    TMP DP  RH WIND       PRES   REMARKS
PATUXENT RIVER PTCLDY    25  21  85 SW5       30.30S                  
ST INIGOES     CLOUDY    29  23  78 CALM      30.30S                  
LEONARDTOWN*   CLOUDY    28  23  80 CALM      30.31F                  
$$
MDZ003>005-210600-
NORTH CENTRAL MARYLAND
  
CITY           SKY/WX    TMP DP  RH WIND       PRES   REMARKS
FREDERICK*     MOCLDY    32  25  74 CALM      30.32F                  
HAGERSTOWN APT CLOUDY    30  21  69 CALM      30.27S                  
WESTMINSTER*   CLOUDY    28  21  74 CALM      30.27S                  
$$
MDZ501>502-210600-
WESTERN MARYLAND
  
CITY           SKY/WX    TMP DP  RH WIND       PRES   REMARKS
OAKLAND*       CLOUDY    23 N/A N/A CALM      30.15S                  
CUMBERLAND*    CLOUDY    30  27  86 CALM      30.30S                  
$$
VAZ025>031-210600-
SHENANDOAH VALLEY
  
CITY           SKY/WX    TMP DP  RH WIND       PRES   REMARKS
WINCHESTER*    CLOUDY    32  21  64 CALM      30.26F                  
FRONT ROYAL*   CLOUDY    32  25  74 CALM      30.26S                  
LURAY*         CLOUDY    32  28  86 CALM      30.25F                  
NEW MARKET*    CLOUDY    31  24  74 CALM      30.25S                  
STAUNTON*      CLOUDY    32  26  77 CALM      30.25S                  
WAYNESBORO*    CLOUDY    32  26  77 CALM      30.22S                  
$$
WVZ021-048>050-054>055-210600-
EASTERN WEST VIRGINIA PANHANDLE
  
CITY           SKY/WX    TMP DP  RH WIND       PRES   REMARKS
MARTINSBURG    CLOUDY    31  21  66 CALM      30.28S                  
PETERSBURG*    CLOUDY    33  28  83 CALM      30.26S                  
$$
VAZ036>039-050-210600-
CENTRAL FOOTHILLS
  
CITY           SKY/WX    TMP DP  RH WIND       PRES   REMARKS
CHARLOTTESVILL CLOUDY    33  25  72 CALM      30.26F                  
CULPEPER*      CLOUDY    32  28  86 CALM      30.29F                  
ORANGE*        CLOUDY    34  30  86 CALM      30.29F                  
GORDONSVILLE*  CLOUDY    32  28  84 CALM      30.28S                  
WARRENTON*     CLOUDY    32  32  99 CALM      30.29S                  
$$
VAZ055>057-210600-
NORTH AND CENTRAL PIEDMONT
  
CITY           SKY/WX    TMP DP  RH WIND       PRES   REMARKS
FREDERICKSBRG* CLOUDY    34  28  76 CALM      30.30S                  
STAFFORD*      CLOUDY    32  26  80 CALM      30.34S                  
$$
NCZ024-NYZ072-PAZ021-071-VAZ022-071-210600-
OTHER REGIONAL OBSERVATIONS
  
CITY           SKY/WX    TMP DP  RH WIND       PRES   REMARKS
NEW YORK CITY  CLOUDY    32  21  64 VRB3      30.30F                  
PHILADELPHIA   CLOUDY    34  23  64 S3        30.31F                  
PITTSBURGH     CLOUDY    28  22  78 CALM      30.25S                  
ROANOKE        CLOUDY    35  26  69 SE3       30.25F                  
RICHMOND       CLOUDY    36  24  62 CALM      30.30S                  
RALEIGH        CLOUDY    38  34  85 CALM      30.28S FOG              
$$
ANZ530>537-210600-
MARINE OBSERVATIONS
  
STATION/POSITION TIME  TEMP    WIND        PRES
                       AIR SEA DIR/SP/G
                 (UTC) (F)     (DEG/KT/KT) (MB)
THOMAS PT LIGHT  0500   36 40   80/  3/  4 1027.1F
BALT KEY BRIDGE  0500   35      70/  2/  2 1026.0S
COVE POINT       0500   33     280/  4/  5 1025.9S
LEWISETTA        0500   35 41  280/  3/  3 1025.8S
SOLOMONS ISLAND  0500      42                N/A
$$